Location: Unspecified
(0.0000°N, 0.0000°E)
Time: 10:08:52
(UTC+00:00)

Vanguard 1 Rocket - Pass Details

Date: 17 December 2017
Orbit: 653 x 4224 km, 34.3° (Epoch: 24 June)

Event Time Altitude Azimuth Distance (km) Brightness Sun altitude
Exits shadow 00:45:44 59° 137° (SE) 4,256 10.5 -63.7°
Drops below altitude 10° 00:59:46 10° 130° (SE) 5,942 11.8 -62.0°
Sets 01:03:27 0° 129° (SE) 6,592 12.2 -61.5°
